Location: Rounton
(54.4000°N, 1.3500°W)
Time: 16:28:49
(UTC+00:00)

Transit 2A Rocket - Pass Details

Date: 08 December 2021
Orbit: 584 x 917 km, 66.7° (Epoch: 23 January)

Event Time Altitude Azimuth Distance (km) Brightness Sun altitude
Rises 05:15:44 0° 155° (SSE) 3,368 8.7 -24.3°
Reaches altitude 10° 05:19:20 10° 132° (SE) 2,501 8.4 -23.8°
Maximum altitude 05:22:14 14° 102° (ESE) 2,260 8.4 -23.3°
Drops below altitude 10° 05:25:12 10° 72° (ENE) 2,583 8.6 -22.9°
Sets 05:29:01 0° 49° (NE) 3,557 9.0 -22.4°
